Harrison, AR

3:55 PM CST on February 25, 2017 (GMT -0600)
Boone County

Weather History for KHRO - November, 2010

Change the Weather History Date:

Monday, November 8, 2010

  Actual Average Record
Temperature  
Mean Temperature 60 °F 52 °F  
Max Temperature 74 °F 62 °F 82 °F (2006)
Min Temperature 45 °F 41 °F 10 °F (1991)
Degree Days  
Heating Degree Days 5 14  
Month to date heating degree days 99 99  
Since 1 July heating degree days 264 364  
Cooling Degree Days 0 0  
Month to date cooling degree days 0 0  
Year to date cooling degree days 1865 1412  
Growing Degree Days 9 (Base 50)    
Moisture  
Dew Point 35 °F    
Average Humidity 42    
Maximum Humidity 59    
Minimum Humidity 25    
Precipitation  
Precipitation 0.00 in 0.14 in 2.32 in (2011)
Month to date precipitation 0.04 1.15  
Year to date precipitation 43.96 37.86  
Snow  
Snow 0.00 in 0.00 in T in (1943)
Month to date snowfall 0.0 0.0  
Since 1 July snowfall 0.0 0.1  
Since 1 September snowfall 0.0 0.1  
Snow Depth 0.00 in    
Sea Level Pressure  
Sea Level Pressure 30.02 in    
Wind  
Wind Speed 7 mph (South)    
Max Wind Speed 15 mph    
Max Gust Speed 21 mph    
Visibility 10 miles    
Events      
T = Trace of Precipitation, MM = Missing Value Source: NWS Daily Summary

Daily Weather History Graph

Daily Weather History Graph

Search for Another Location

Airport or City:

Trip Planner

Search our weather history database for the weather conditions in past years. The results will help you decide how hot, cold, wet, or windy it might be!

Date:

Astronomy

Nov. 08, 2010 Rise Set
Actual Time 6:42 AM CST 5:09 PM CST
Civil Twilight 6:15 AM CST 5:36 PM CST
Nautical Twilight 5:44 AM CST 6:07 PM CST
Astronomical Twilight 5:14 AM CST 6:37 PM CST
Moon 9:25 AM CST (11/8) 7:11 PM CST (11/8)
Length of Visible Light 11h 21m
Length of Day
10h 27m
Waxing Crescent, 8% of the Moon is Illuminated
Nov 8
Waxing Crescent
Nov 13
First Quarter
Nov 21
Full
Nov 28
Last Quarter
Dec 5
New

Hourly Weather History & Observations

Time (CST) Temp. Windchill Dew Point Humidity Pressure Visibility Wind Dir Wind Speed Gust Speed Precip Events Conditions
12:53 AM 53.1 °F - 24.1 °F 32% 30.11 in 10.0 mi SSW 5.8 mph - N/A   Clear
1:53 AM 54.0 °F - 25.0 °F 33% 30.11 in 10.0 mi SSW 6.9 mph - N/A   Clear
2:53 AM 48.9 °F - 26.1 °F 41% 30.10 in 10.0 mi SSE 3.5 mph - N/A   Clear
3:53 AM 48.9 °F - 27.0 °F 43% 30.08 in 10.0 mi ESE 6.9 mph - N/A   Clear
4:53 AM 46.0 °F - 28.0 °F 50% 30.10 in 10.0 mi Calm Calm - N/A   Clear
5:53 AM 52.0 °F - 28.0 °F 40% 30.09 in 10.0 mi South 6.9 mph - N/A   Clear
6:53 AM 45.0 °F 43.5 °F 28.0 °F 52% 30.10 in 10.0 mi East 3.5 mph - N/A   Clear
7:53 AM 51.8 °F - 30.2 °F 44% 30.10 in 10.0 mi Calm Calm - N/A   Clear
8:53 AM 59.0 °F - 34.0 °F 39% 30.08 in 10.0 mi SE 3.5 mph - N/A   Clear
9:53 AM 66.0 °F - 39.0 °F 37% 30.07 in 10.0 mi Variable 5.8 mph - N/A   Clear
10:53 AM 70.0 °F - 39.0 °F 32% 30.06 in 10.0 mi SW 9.2 mph - N/A   Clear
11:53 AM 71.1 °F - 39.0 °F 31% 30.03 in 10.0 mi SSW 10.4 mph - N/A   Clear
12:53 PM 72.0 °F - 37.0 °F 28% 30.00 in 10.0 mi SSW 8.1 mph - N/A   Clear
1:53 PM 73.4 °F - 35.6 °F 25% 29.99 in 10.0 mi South 11.5 mph 17.3 mph N/A   Clear
2:53 PM 73.9 °F - 37.0 °F 26% 29.96 in 10.0 mi SSW 6.9 mph - N/A   Clear
3:53 PM 70.0 °F - 41.0 °F 35% 29.96 in 10.0 mi South 11.5 mph - N/A   Clear
4:53 PM 64.9 °F - 41.0 °F 42% 29.96 in 10.0 mi South 8.1 mph - N/A   Clear
5:53 PM 61.0 °F - 41.0 °F 48% 29.96 in 10.0 mi South 8.1 mph - N/A   Clear
6:53 PM 55.0 °F - 39.9 °F 57% 29.96 in 10.0 mi SE 8.1 mph - N/A   Partly Cloudy
7:53 PM 55.9 °F - 41.0 °F 57% 29.95 in 10.0 mi SSE 11.5 mph - N/A   Unknown
8:53 PM 54.0 °F - 39.0 °F 57% 29.95 in 10.0 mi SSE 9.2 mph - N/A   Unknown
9:53 PM 55.9 °F - 37.0 °F 49% 29.94 in 10.0 mi South 9.2 mph - N/A   Unknown
10:53 PM 54.0 °F - 36.0 °F 51% 29.94 in 10.0 mi SE 8.1 mph - N/A   Clear
11:53 PM 54.0 °F - 36.0 °F 51% 29.94 in 10.0 mi South 8.1 mph - N/A   Unknown